QPF
0.04 0.04 0.04 0.03 0.05 0.05 0.06 0.07 0.08 0.08 0.07 0.05 0.04 0.04 0.03 0.03 0.03 0.03 0.03 0.02 0.02 0.02 0.02 0.03 0.03 0.03 0.04 0.03 0.02 0.03 0.03 0.04 0.04 0.05 0.06 0.09 0.13 0.14
0.04 0.04 0.03 0.02 0.03 0.04 0.05 0.06 0.06 0.06 0.06 0.05 0.03 0.02 0.02 0.02 0.02 0.01 0.01 0.01 0.01 0.01 0.01 0.03 0.03 0.03 0.04 0.05 0.04 0.04 0.04 0.04 0.04 0.05 0.07 0.09 0.13 0.13
0.03 0.03 0.03 0.02 0.02 0.04 0.06 0.06 0.05 0.05 0.05 0.04 0.04 0.03 0.03 0.03 0.03 0.02 0.02 0.01 0.01 0.01 0.01 0.02 0.04 0.04 0.04 0.06 0.05 0.05 0.07 0.08 0.07 0.08 0.08 0.09 0.10 0.12
0.02 0.02 0.03 0.03 0.03 0.03 0.05 0.06 0.07 0.08 0.06 0.05 0.04 0.03 0.03 0.04 0.04 0.03 0.01 0.01 0.01 0.02 0.02 0.02 0.03 0.04 0.04 0.05 0.07 0.06 0.05 0.06 0.08 0.09 0.09 0.08 0.08 0.08
0.02 0.02 0.02 0.03 0.03 0.04 0.03 0.05 0.07 0.09 0.09 0.07 0.06 0.04 0.04 0.04 0.04 0.02 0.02 0.02 0.01 0.01 0.02 0.03 0.03 0.04 0.04 0.04 0.06 0.08 0.08 0.07 0.06 0.07 0.08 0.09 0.07 0.06
0.02 0.02 0.02 0.02 0.03 0.03 0.03 0.04 0.05 0.06 0.06 0.07 0.07 0.06 0.04 0.05 0.04 0.03 0.02 0.02 0.02 0.02 0.01 0.02 0.03 0.04 0.04 0.04 0.07 0.09 0.09 0.09 0.07 0.07 0.06 0.07 0.05 0.04
0.02 0.02 0.02 0.02 0.03 0.04 0.04 0.05 0.06 0.05 0.05 0.05 0.06 0.06 0.07 0.06 0.05 0.04 0.03 0.02 0.02 0.02 0.02 0.02 0.02 0.02 0.03 0.04 0.07 0.09 0.08 0.08 0.08 0.08 0.08 0.09 0.08 0.07
0.02 0.03 0.03 0.02 0.03 0.03 0.03 0.04 0.06 0.06 0.07 0.06 0.06 0.06 0.06 0.06 0.05 0.04 0.03 0.02 0.02 0.02 0.02 0.03 0.03 0.02 0.02 0.03 0.07 0.10 0.07 0.06 0.06 0.06 0.06 0.06 0.05 0.04
0.03 0.05 0.05 0.04 0.04 0.04 0.05 0.06 0.06 0.07 0.08 0.07 0.07 0.05 0.04 0.04 0.04 0.03 0.03 0.03 0.02 0.02 0.02 0.03 0.03 0.03 0.02 0.02 0.06 0.09 0.08 0.05 0.04 0.03 0.03 0.02 0.02 0.02
0.03 0.05 0.08 0.07 0.05 0.05 0.05 0.07 0.08 0.07 0.05 0.05 0.05 0.05 0.04 0.04 0.04 0.03 0.03 0.03 0.03 0.02 0.02 0.03 0.03 0.04 0.04 0.04 0.05 0.08 0.07 0.06 0.05 0.05 0.03 0.03 0.02 0.02
0.02 0.02 0.04 0.06 0.07 0.08 0.06 0.05 0.06 0.08 0.08 0.06 0.05 0.05 0.05 0.04 0.03 0.03 0.03 0.03 0.02 0.02 0.02 0.02 0.02 0.03 0.05 0.07 0.06 0.07 0.06 0.05 0.05 0.05 0.04 0.02 0.02 0.01
0.01 0.02 0.02 0.04 0.06 0.06 0.05 0.05 0.05 0.07 0.07 0.07 0.05 0.05 0.05 0.04 0.03 0.03 0.02 0.02 0.02 0.02 0.02 0.03 0.03 0.03 0.04 0.06 0.07 0.07 0.05 0.04 0.04 0.03 0.03 0.02 0.01 0.01
0.02 0.02 0.03 0.05 0.07 0.08 0.06 0.06 0.07 0.07 0.06 0.05 0.04 0.04 0.04 0.04 0.03 0.02 0.01 0.01 0.02 0.02 0.02 0.03 0.04 0.04 0.04 0.05 0.06 0.07 0.05 0.03 0.02 0.03 0.03 0.03 0.02 0.01
0.03 0.04 0.05 0.06 0.06 0.06 0.06 0.07 0.07 0.07 0.06 0.05 0.04 0.04 0.03 0.03 0.03 0.03 0.02 0.02 0.02 0.02 0.03 0.03 0.03 0.03 0.03 0.03 0.04 0.04 0.05 0.04 0.03 0.02 0.02 0.03 0.02 0.02
0.04 0.05 0.05 0.06 0.07 0.07 0.06 0.06 0.05 0.04 0.04 0.04 0.05 0.04 0.04 0.04 0.04 0.04 0.04 0.03 0.02 0.01 0.02 0.02 0.03 0.03 0.03 0.03 0.02 0.02 0.03 0.03 0.03 0.03 0.02 0.02 0.02 0.01
0.03 0.06 0.08 0.07 0.07 0.08 0.07 0.04 0.03 0.03 0.03 0.04 0.04 0.04 0.04 0.04 0.04 0.04 0.05 0.04 0.03 0.03 0.02 0.02 0.02 0.02 0.03 0.03 0.02 0.02 0.02 0.02 0.02 0.02 0.02 0.02 0.02 0.02
0.03 0.04 0.08 0.11 0.09 0.07 0.06 0.06 0.06 0.06 0.06 0.05 0.04 0.05 0.04 0.03 0.03 0.03 0.04 0.04 0.04 0.04 0.02 0.01 0.02 0.02 0.02 0.03 0.03 0.02 0.02 0.02 0.02 0.02 0.03 0.03 0.03 0.04
0.04 0.05 0.09 0.11 0.08 0.06 0.04 0.03 0.04 0.05 0.05 0.04 0.03 0.03 0.03 0.03 0.02 0.02 0.03 0.03 0.04 0.04 0.03 0.02 0.02 0.02 0.02 0.03 0.02 0.02 0.02 0.02 0.02 0.02 0.03 0.04 0.04 0.03
0.09 0.08 0.11 0.11 0.07 0.05 0.04 0.03 0.03 0.02 0.02 0.02 0.02 0.02 0.02 0.01 0.02 0.02 0.03 0.03 0.03 0.04 0.04 0.04 0.03 0.03 0.02 0.02 0.02 0.01 0.02 0.02 0.02 0.03 0.04 0.03 0.04 0.03
0.08 0.08 0.08 0.07 0.06 0.05 0.03 0.02 0.02 0.02 0.01 0.02 0.02 0.02 0.02 0.02 0.01 0.02 0.02 0.03 0.03 0.03 0.05 0.06 0.05 0.04 0.04 0.03 0.03 0.02 0.02 0.03 0.03 0.04 0.04 0.04 0.04 0.03
0.03 0.04 0.03 0.03 0.03 0.02 0.02 0.01 0.01 0.01 0.01 0.01 0.01 0.01 0.02 0.02 0.02 0.02 0.02 0.03 0.03 0.04 0.04 0.04 0.05 0.06 0.06 0.07 0.06 0.05 0.05 0.04 0.05 0.05 0.04 0.04 0.04 0.04
0.02 0.02 0.02 0.02 0.02 0.02 0.02 0.01 0.01 0.01 0.01 0.01 0.01 0.01 0.02 0.02 0.03 0.03 0.03 0.04 0.04 0.04 0.04 0.04 0.05 0.06 0.06 0.07 0.07 0.07 0.08 0.07 0.06 0.06 0.05 0.05 0.04 0.04
0.02 0.02 0.01 0.01 0.01 0.02 0.02 0.02 0.02 0.02 0.02 0.02 0.02 0.01 0.01 0.02 0.03 0.03 0.03 0.03 0.04 0.04 0.05 0.05 0.06 0.07 0.07 0.07 0.08 0.08 0.08 0.08 0.07 0.06 0.05 0.05 0.04 0.04
MSLP
1016.47 1016.59 1016.72 1016.86 1016.99 1017.10 1017.18 1017.24 1017.30 1017.36 1017.43 1017.52 1017.61 1017.70 1017.77 1017.80 1017.79 1017.75 1017.66 1017.55 1017.44 1017.32 1017.21 1017.11 1017.00 1016.87 1016.69 1016.46 1016.17 1015.82 1015.43 1015.01 1014.61 1014.24 1013.93 1013.68 1013.50 1013.38
1017.06 1017.15 1017.25 1017.35 1017.43 1017.50 1017.54 1017.57 1017.60 1017.64 1017.69 1017.75 1017.82 1017.88 1017.92 1017.92 1017.88 1017.80 1017.68 1017.55 1017.42 1017.31 1017.21 1017.14 1017.08 1017.01 1016.91 1016.76 1016.55 1016.28 1015.95 1015.59 1015.22 1014.86 1014.54 1014.28 1014.08 1013.93
1017.61 1017.71 1017.81 1017.89 1017.96 1018.00 1018.03 1018.04 1018.05 1018.06 1018.09 1018.13 1018.16 1018.19 1018.18 1018.13 1018.04 1017.91 1017.75 1017.57 1017.41 1017.27 1017.17 1017.11 1017.07 1017.05 1017.00 1016.92 1016.78 1016.58 1016.32 1016.01 1015.68 1015.34 1015.03 1014.76 1014.53 1014.35
1018.14 1018.27 1018.39 1018.48 1018.55 1018.59 1018.61 1018.62 1018.61 1018.61 1018.62 1018.63 1018.63 1018.60 1018.55 1018.45 1018.30 1018.11 1017.89 1017.66 1017.45 1017.27 1017.13 1017.05 1017.01 1016.99 1016.98 1016.94 1016.86 1016.73 1016.53 1016.29 1016.00 1015.70 1015.40 1015.12 1014.87 1014.66
1018.64 1018.82 1018.97 1019.09 1019.18 1019.24 1019.26 1019.27 1019.26 1019.24 1019.23 1019.20 1019.17 1019.11 1019.00 1018.85 1018.65 1018.40 1018.11 1017.82 1017.54 1017.30 1017.11 1016.98 1016.91 1016.88 1016.87 1016.86 1016.82 1016.74 1016.61 1016.42 1016.19 1015.93 1015.65 1015.37 1015.11 1014.87
1019.11 1019.33 1019.52 1019.68 1019.80 1019.87 1019.91 1019.92 1019.90 1019.88 1019.84 1019.79 1019.73 1019.63 1019.48 1019.29 1019.03 1018.73 1018.38 1018.03 1017.68 1017.36 1017.11 1016.91 1016.79 1016.72 1016.69 1016.68 1016.67 1016.63 1016.55 1016.43 1016.25 1016.04 1015.79 1015.52 1015.24 1014.98
1019.53 1019.80 1020.03 1020.21 1020.35 1020.44 1020.48 1020.49 1020.47 1020.43 1020.38 1020.31 1020.22 1020.10 1019.92 1019.69 1019.40 1019.05 1018.66 1018.25 1017.84 1017.45 1017.12 1016.86 1016.66 1016.54 1016.47 1016.44 1016.43 1016.42 1016.38 1016.31 1016.19 1016.03 1015.81 1015.56 1015.29 1015.00
1019.89 1020.18 1020.43 1020.63 1020.78 1020.87 1020.91 1020.91 1020.88 1020.84 1020.77 1020.69 1020.58 1020.44 1020.25 1020.01 1019.70 1019.33 1018.91 1018.46 1018.00 1017.55 1017.15 1016.82 1016.55 1016.36 1016.24 1016.18 1016.15 1016.14 1016.13 1016.09 1016.01 1015.89 1015.72 1015.49 1015.22 1014.92
1020.15 1020.45 1020.70 1020.90 1021.04 1021.12 1021.15 1021.14 1021.10 1021.04 1020.96 1020.87 1020.76 1020.62 1020.43 1020.19 1019.89 1019.52 1019.09 1018.63 1018.14 1017.66 1017.21 1016.81 1016.48 1016.22 1016.04 1015.92 1015.86 1015.83 1015.81 1015.78 1015.73 1015.64 1015.49 1015.29 1015.03 1014.73
1020.31 1020.59 1020.82 1020.99 1021.11 1021.17 1021.18 1021.15 1021.10 1021.03 1020.95 1020.86 1020.76 1020.63 1020.46 1020.24 1019.95 1019.61 1019.20 1018.74 1018.26 1017.76 1017.29 1016.85 1016.46 1016.14 1015.90 1015.72 1015.60 1015.52 1015.47 1015.43 1015.37 1015.28 1015.15 1014.96 1014.72 1014.42
1020.34 1020.59 1020.79 1020.93 1021.01 1021.04 1021.02 1020.98 1020.91 1020.84 1020.76 1020.69 1020.60 1020.49 1020.35 1020.16 1019.91 1019.60 1019.24 1018.81 1018.35 1017.87 1017.40 1016.94 1016.53 1016.16 1015.86 1015.61 1015.42 1015.28 1015.17 1015.07 1014.98 1014.87 1014.72 1014.53 1014.29 1014.00
1020.27 1020.49 1020.64 1020.73 1020.77 1020.77 1020.73 1020.67 1020.60 1020.53 1020.47 1020.41 1020.34 1020.26 1020.15 1020.00 1019.79 1019.53 1019.22 1018.85 1018.43 1017.99 1017.54 1017.10 1016.67 1016.28 1015.93 1015.62 1015.36 1015.14 1014.95 1014.78 1014.62 1014.45 1014.27 1014.06 1013.82 1013.53
1020.13 1020.30 1020.41 1020.46 1020.46 1020.42 1020.36 1020.30 1020.23 1020.17 1020.13 1020.09 1020.04 1019.99 1019.91 1019.79 1019.63 1019.42 1019.16 1018.85 1018.49 1018.11 1017.70 1017.29 1016.88 1016.49 1016.11 1015.75 1015.43 1015.12 1014.84 1014.59 1014.34 1014.11 1013.87 1013.62 1013.36 1013.08
1019.94 1020.06 1020.13 1020.14 1020.11 1020.05 1019.98 1019.92 1019.87 1019.83 1019.80 1019.78 1019.76 1019.73 1019.67 1019.59 1019.46 1019.28 1019.07 1018.81 1018.52 1018.21 1017.87 1017.51 1017.14 1016.76 1016.38 1015.99 1015.62 1015.24 1014.88 1014.54 1014.21 1013.89 1013.59 1013.30 1013.01 1012.72
1019.71 1019.80 1019.82 1019.80 1019.75 1019.68 1019.62 1019.57 1019.53 1019.52 1019.52 1019.53 1019.52 1019.51 1019.47 1019.39 1019.28 1019.14 1018.96 1018.76 1018.52 1018.27 1018.00 1017.71 1017.39 1017.06 1016.69 1016.31 1015.90 1015.49 1015.06 1014.64 1014.24 1013.85 1013.48 1013.15 1012.83 1012.52
1019.44 1019.50 1019.50 1019.46 1019.39 1019.33 1019.28 1019.25 1019.25 1019.27 1019.30 1019.33 1019.35 1019.34 1019.31 1019.23 1019.13 1019.00 1018.85 1018.67 1018.49 1018.30 1018.09 1017.87 1017.62 1017.33 1017.01 1016.65 1016.24 1015.81 1015.35 1014.89 1014.43 1013.99 1013.58 1013.20 1012.85 1012.53
1019.12 1019.16 1019.14 1019.09 1019.03 1018.98 1018.95 1018.96 1019.00 1019.06 1019.12 1019.18 1019.22 1019.23 1019.19 1019.12 1019.01 1018.88 1018.74 1018.59 1018.44 1018.29 1018.14 1017.97 1017.79 1017.56 1017.29 1016.97 1016.59 1016.17 1015.71 1015.23 1014.75 1014.29 1013.85 1013.45 1013.07 1012.73
1018.73 1018.75 1018.72 1018.68 1018.63 1018.61 1018.63 1018.68 1018.77 1018.87 1018.98 1019.08 1019.14 1019.16 1019.13 1019.05 1018.94 1018.81 1018.66 1018.52 1018.39 1018.27 1018.15 1018.03 1017.90 1017.73 1017.51 1017.23 1016.89 1016.50 1016.07 1015.61 1015.15 1014.69 1014.24 1013.83 1013.45 1013.10
1018.24 1018.26 1018.23 1018.20 1018.19 1018.21 1018.27 1018.38 1018.53 1018.70 1018.86 1019.00 1019.09 1019.13 1019.12 1019.05 1018.93 1018.79 1018.65 1018.50 1018.37 1018.27 1018.17 1018.07 1017.97 1017.83 1017.65 1017.42 1017.13 1016.78 1016.39 1015.96 1015.53 1015.10 1014.68 1014.28 1013.91 1013.55
1017.65 1017.67 1017.67 1017.67 1017.70 1017.78 1017.90 1018.08 1018.30 1018.52 1018.75 1018.94 1019.08 1019.15 1019.16 1019.10 1019.00 1018.86 1018.71 1018.57 1018.43 1018.32 1018.22 1018.13 1018.03 1017.91 1017.75 1017.53 1017.27 1016.96 1016.61 1016.24 1015.85 1015.46 1015.08 1014.72 1014.36 1014.01
1016.97 1017.03 1017.06 1017.11 1017.20 1017.34 1017.54 1017.79 1018.08 1018.37 1018.66 1018.91 1019.10 1019.21 1019.25 1019.23 1019.14 1019.02 1018.87 1018.72 1018.58 1018.45 1018.34 1018.23 1018.11 1017.97 1017.80 1017.59 1017.35 1017.06 1016.74 1016.41 1016.06 1015.72 1015.39 1015.07 1014.75 1014.42
1016.25 1016.35 1016.44 1016.56 1016.72 1016.94 1017.22 1017.54 1017.90 1018.26 1018.61 1018.91 1019.15 1019.31 1019.39 1019.40 1019.35 1019.24 1019.11 1018.96 1018.81 1018.66 1018.52 1018.37 1018.22 1018.05 1017.85 1017.63 1017.37 1017.08 1016.79 1016.48 1016.18 1015.88 1015.60 1015.32 1015.04 1014.74
1015.54 1015.70 1015.87 1016.07 1016.32 1016.62 1016.98 1017.37 1017.79 1018.21 1018.60 1018.95 1019.23 1019.43 1019.55 1019.60 1019.58 1019.50 1019.38 1019.24 1019.09 1018.92 1018.75 1018.57 1018.38 1018.16 1017.92 1017.66 1017.37 1017.08 1016.78 1016.49 1016.22 1015.96 1015.72 1015.48 1015.25 1014.98
Thickness
5748 5747 5746 5746 5745 5745 5743 5740 5735 5731 5731 5734 5735 5736 5735 5733 5730 5729 5728 5725 5723 5721 5720 5719 5717 5716 5714 5713 5712 5712 5711 5711 5711 5711 5710 5711 5711 5710
5744 5742 5741 5744 5743 5742 5740 5739 5737 5733 5729 5732 5732 5733 5731 5730 5727 5726 5725 5722 5720 5718 5717 5715 5714 5712 5711 5710 5709 5708 5708 5708 5708 5708 5707 5707 5707 5707
5741 5739 5737 5737 5737 5738 5737 5735 5734 5731 5726 5727 5729 5728 5724 5723 5722 5722 5722 5720 5719 5715 5713 5711 5710 5709 5707 5706 5705 5705 5705 5705 5705 5704 5704 5703 5703 5703
5737 5735 5734 5734 5731 5732 5731 5730 5729 5727 5724 5720 5721 5721 5719 5719 5717 5716 5717 5718 5716 5712 5709 5707 5706 5705 5704 5702 5701 5701 5701 5701 5700 5700 5699 5699 5698 5698
5733 5731 5729 5728 5725 5725 5724 5725 5724 5724 5721 5718 5717 5716 5715 5715 5712 5712 5712 5710 5711 5709 5706 5703 5701 5700 5699 5698 5697 5696 5696 5696 5695 5695 5694 5693 5693 5692
5728 5727 5724 5722 5720 5718 5718 5717 5717 5716 5715 5714 5713 5712 5710 5708 5706 5705 5704 5704 5705 5706 5702 5700 5698 5695 5694 5693 5692 5691 5691 5690 5690 5689 5688 5687 5687 5686
5722 5721 5720 5717 5714 5712 5712 5711 5710 5709 5709 5708 5706 5705 5702 5699 5699 5699 5697 5697 5697 5698 5696 5696 5695 5693 5690 5688 5686 5685 5685 5685 5684 5683 5682 5681 5680 5680
5716 5715 5714 5712 5709 5706 5703 5701 5700 5700 5700 5699 5699 5696 5694 5693 5692 5691 5690 5688 5687 5690 5688 5688 5689 5687 5686 5685 5681 5679 5678 5678 5678 5678 5677 5675 5674 5674
5710 5708 5708 5708 5704 5703 5699 5696 5694 5692 5691 5691 5691 5689 5688 5687 5684 5683 5682 5680 5679 5681 5680 5680 5681 5680 5679 5678 5675 5673 5672 5671 5671 5670 5670 5669 5668 5667
5704 5702 5700 5698 5698 5694 5693 5692 5690 5688 5686 5685 5684 5683 5681 5679 5678 5677 5675 5674 5674 5674 5673 5672 5673 5673 5673 5670 5667 5666 5664 5664 5663 5663 5662 5662 5661 5660
5699 5697 5694 5691 5687 5684 5684 5683 5682 5681 5679 5676 5675 5674 5672 5670 5669 5670 5669 5668 5668 5669 5668 5665 5665 5665 5665 5664 5662 5660 5658 5657 5656 5655 5654 5654 5653 5652
5694 5691 5686 5683 5678 5675 5676 5676 5674 5673 5673 5671 5668 5666 5665 5663 5661 5660 5661 5660 5660 5659 5660 5658 5658 5656 5656 5658 5657 5654 5652 5650 5649 5648 5647 5645 5644 5645
5688 5686 5682 5674 5670 5668 5667 5667 5665 5664 5664 5664 5663 5662 5660 5658 5656 5654 5653 5652 5651 5651 5651 5648 5648 5648 5648 5649 5650 5649 5648 5645 5643 5642 5640 5638 5637 5637
5680 5679 5674 5666 5663 5661 5660 5658 5656 5655 5658 5658 5656 5655 5653 5651 5649 5647 5644 5642 5641 5640 5639 5638 5639 5638 5639 5640 5641 5641 5640 5639 5638 5637 5635 5632 5630 5629
5673 5668 5663 5659 5656 5655 5652 5651 5650 5652 5652 5650 5648 5646 5644 5642 5640 5638 5636 5635 5633 5633 5632 5630 5629 5630 5630 5631 5632 5632 5631 5631 5630 5629 5628 5627 5626 5625
5664 5660 5655 5651 5649 5647 5645 5644 5644 5644 5642 5641 5639 5637 5635 5634 5632 5631 5629 5628 5627 5626 5624 5622 5621 5620 5621 5621 5622 5622 5623 5622 5621 5620 5620 5619 5619 5620
5658 5655 5652 5649 5646 5643 5641 5639 5637 5635 5633 5630 5629 5628 5627 5626 5625 5624 5621 5621 5620 5619 5618 5616 5615 5613 5612 5612 5613 5614 5614 5613 5613 5612 5609 5611 5612 5612
5650 5650 5646 5643 5640 5637 5635 5632 5629 5626 5624 5622 5620 5618 5618 5617 5616 5616 5614 5613 5613 5612 5610 5609 5608 5606 5605 5606 5603 5604 5604 5604 5604 5602 5602 5602 5603 5604
5644 5643 5640 5636 5633 5631 5628 5625 5622 5619 5616 5614 5612 5610 5609 5609 5608 5607 5606 5605 5604 5603 5602 5601 5599 5598 5597 5598 5598 5593 5594 5594 5594 5593 5594 5594 5595 5596
5640 5638 5634 5630 5627 5624 5622 5619 5616 5613 5610 5608 5605 5603 5601 5600 5599 5599 5599 5596 5596 5595 5594 5593 5591 5590 5588 5588 5589 5588 5584 5585 5584 5584 5584 5585 5585 5584
5636 5634 5630 5626 5621 5618 5614 5611 5609 5606 5603 5600 5598 5595 5594 5593 5591 5590 5589 5586 5585 5587 5586 5586 5584 5579 5579 5579 5580 5582 5581 5576 5574 5573 5573 5574 5575 5576
5630 5628 5625 5620 5615 5611 5608 5604 5601 5598 5595 5592 5590 5588 5587 5585 5583 5581 5580 5579 5579 5579 5579 5579 5576 5574 5572 5572 5572 5573 5572 5570 5567 5565 5563 5563 5565 5566
5623 5620 5617 5613 5609 5605 5602 5598 5594 5592 5588 5586 5583 5580 5578 5576 5574 5573 5572 5572 5571 5570 5570 5570 5569 5567 5566 5566 5565 5566 5565 5564 5563 5561 5560 5557 5555 5555